Wetterdaten: Woche 09.03.09 - 15.03.09 (KW11)
Datum Zeit Temp. Innen Temp. Aussen Feuchte Inne Feuchte Auss Luftdruck Regen ab 0,1 Wind
09.03.2009 00:00 17,5 C 5,4 C 44 % 73 % 1002,4 hPa 0,0 l/m 1,7 km/h (1 Bft)
09.03.2009 01:00 17,4 C 4,7 C 44 % 73 % 1002,4 hPa 0,0 l/m 1,1 km/h (0 Bft)
09.03.2009 02:00 17,4 C 4,6 C 44 % 76 % 1002,4 hPa 0,0 l/m 2,3 km/h (1 Bft)
09.03.2009 03:00 17,3 C 4,2 C 44 % 76 % 1003,2 hPa 0,0 l/m 3,4 km/h (1 Bft)
09.03.2009 04:00 17,3 C 2,9 C 44 % 80 % 1004,1 hPa 0,0 l/m 0,9 km/h (0 Bft)
09.03.2009 05:00 17,2 C 2,2 C 43 % 82 % 1004,9 hPa 0,0 l/m 4,3 km/h (1 Bft)
09.03.2009 06:00 17,2 C 2,3 C 43 % 83 % 1005,8 hPa 0,0 l/m 6,4 km/h (2 Bft)
09.03.2009 07:00 17,1 C 2,7 C 43 % 83 % 1006,5 hPa 0,0 l/m 8,0 km/h (2 Bft)
09.03.2009 08:00 17,1 C 3,2 C 43 % 82 % 1007,2 hPa 0,0 l/m 7,8 km/h (2 Bft)
09.03.2009 09:00 17,0 C 3,8 C 43 % 81 % 1008,3 hPa 0,0 l/m 8,6 km/h (2 Bft)
09.03.2009 10:00 17,0 C 4,8 C 43 % 78 % 1008,5 hPa 0,0 l/m 6,8 km/h (2 Bft)
09.03.2009 11:00 17,0 C 6,0 C 43 % 74 % 1008,4 hPa 0,0 l/m 10,5 km/h (2 Bft)
09.03.2009 12:00 16,9 C 6,8 C 43 % 70 % 1008,4 hPa 0,0 l/m 12,1 km/h (2 Bft)
09.03.2009 13:00 16,8 C 7,1 C 43 % 70 % 1008,4 hPa 0,0 l/m 6,4 km/h (2 Bft)
09.03.2009 14:00 16,8 C 7,3 C 43 % 70 % 1008,7 hPa 0,0 l/m 9,1 km/h (2 Bft)
09.03.2009 15:00 16,8 C 7,2 C 44 % 70 % 1009,4 hPa 0,0 l/m 3,7 km/h (1 Bft)
09.03.2009 16:00 16,8 C 7,3 C 44 % 69 % 1010,3 hPa 0,0 l/m 6,2 km/h (2 Bft)
09.03.2009 17:00 16,8 C 7,1 C 43 % 69 % 1010,4 hPa 0,0 l/m 5,8 km/h (2 Bft)
09.03.2009 18:00 16,8 C 6,6 C 43 % 71 % 1011,3 hPa 0,0 l/m 4,0 km/h (1 Bft)
09.03.2009 19:00 17,1 C 6,2 C 43 % 73 % 1011,6 hPa 0,0 l/m 3,6 km/h (1 Bft)
09.03.2009 20:00 17,1 C 5,9 C 43 % 74 % 1011,6 hPa 0,0 l/m 1,0 km/h (0 Bft)
09.03.2009 21:00 17,1 C 5,5 C 43 % 75 % 1012,3 hPa 0,0 l/m 2,3 km/h (1 Bft)
09.03.2009 22:00 17,1 C 5,5 C 43 % 74 % 1012,5 hPa 0,0 l/m 4,3 km/h (1 Bft)
09.03.2009 23:00 17,0 C 5,3 C 43 % 76 % 1012,5 hPa 0,0 l/m 0,4 km/h (0 Bft)
10.03.2009 00:00 17,0 C 5,3 C 43 % 77 % 1012,5 hPa 0,0 l/m 2,7 km/h (1 Bft)
10.03.2009 01:00 17,0 C 5,3 C 43 % 78 % 1012,5 hPa 0,0 l/m 2,6 km/h (1 Bft)
10.03.2009 02:00 17,0 C 5,3 C 43 % 78 % 1012,5 hPa 0,0 l/m 3,3 km/h (1 Bft)
10.03.2009 03:00 16,9 C 5,1 C 44 % 80 % 1012,1 hPa 0,0 l/m 2,4 km/h (1 Bft)
10.03.2009 04:00 16,9 C 5,2 C 44 % 82 % 1011,5 hPa 0,0 l/m 3,0 km/h (1 Bft)
10.03.2009 05:00 17,0 C 5,4 C 44 % 82 % 1011,1 hPa 0,0 l/m 2,3 km/h (1 Bft)
10.03.2009 06:00 17,0 C 5,3 C 44 % 83 % 1010,5 hPa 0,5 l/m 2,9 km/h (1 Bft)
10.03.2009 07:00 17,0 C 4,9 C 44 % 84 % 1010,3 hPa 0,0 l/m 1,1 km/h (1 Bft)
10.03.2009 08:00 17,1 C 4,9 C 45 % 85 % 1009,5 hPa 0,0 l/m 0,5 km/h (0 Bft)
10.03.2009 09:00 17,1 C 5,3 C 45 % 86 % 1008,8 hPa 0,5 l/m 1,0 km/h (0 Bft)
10.03.2009 10:00 17,1 C 5,6 C 46 % 86 % 1007,9 hPa 0,5 l/m 1,1 km/h (1 Bft)
10.03.2009 11:00 17,1 C 5,9 C 46 % 86 % 1006,5 hPa 0,5 l/m 2,8 km/h (1 Bft)
10.03.2009 12:00 17,0 C 5,8 C 46 % 85 % 1005,9 hPa 1,0 l/m 5,0 km/h (1 Bft)
10.03.2009 13:00 16,9 C 5,6 C 45 % 85 % 1004,7 hPa 1,0 l/m 3,7 km/h (1 Bft)
10.03.2009 14:00 16,8 C 5,7 C 46 % 86 % 1003,6 hPa 0,5 l/m 2,9 km/h (1 Bft)
10.03.2009 15:00 16,8 C 5,9 C 46 % 87 % 1003,4 hPa 0,0 l/m 5,6 km/h (1 Bft)
10.03.2009 16:00 16,8 C 6,6 C 46 % 87 % 1003,4 hPa 0,0 l/m 5,7 km/h (1 Bft)
10.03.2009 17:00 16,8 C 7,0 C 47 % 88 % 1003,6 hPa 0,0 l/m 3,5 km/h (1 Bft)
10.03.2009 18:00 16,9 C 7,3 C 47 % 88 % 1004,6 hPa 0,0 l/m 4,1 km/h (1 Bft)
10.03.2009 19:00 17,1 C 6,6 C 47 % 86 % 1006,6 hPa 0,5 l/m 2,9 km/h (1 Bft)
10.03.2009 20:00 17,0 C 5,9 C 47 % 85 % 1008,6 hPa 0,0 l/m 3,1 km/h (1 Bft)
10.03.2009 21:00 17,1 C 5,7 C 47 % 85 % 1009,9 hPa 0,0 l/m 3,6 km/h (1 Bft)
10.03.2009 22:00 17,1 C 5,5 C 47 % 84 % 1011,3 hPa 0,0 l/m 2,3 km/h (1 Bft)
10.03.2009 23:00 17,0 C 5,4 C 46 % 83 % 1012,7 hPa 0,0 l/m 2,2 km/h (1 Bft)
11.03.2009 00:00 16,9 C 5,3 C 46 % 83 % 1013,7 hPa 0,0 l/m 2,9 km/h (1 Bft)
11.03.2009 01:00 16,8 C 5,0 C 45 % 82 % 1014,7 hPa 0,0 l/m 3,3 km/h (1 Bft)
11.03.2009 02:00 17,0 C 4,5 C 46 % 83 % 1015,5 hPa 0,0 l/m 0,6 km/h (0 Bft)
11.03.2009 03:00 16,9 C 4,1 C 46 % 85 % 1015,8 hPa 0,0 l/m 1,2 km/h (1 Bft)
11.03.2009 04:00 17,0 C 4,0 C 46 % 86 % 1016,5 hPa 0,0 l/m 3,4 km/h (1 Bft)
11.03.2009 05:00 17,0 C 4,1 C 46 % 87 % 1016,9 hPa 0,0 l/m 2,7 km/h (1 Bft)
11.03.2009 06:00 17,0 C 4,2 C 46 % 87 % 1017,8 hPa 0,0 l/m 1,6 km/h (1 Bft)
11.03.2009 07:00 17,0 C 4,1 C 46 % 87 % 1018,6 hPa 0,0 l/m 2,3 km/h (1 Bft)
11.03.2009 08:00 17,0 C 4,5 C 46 % 87 % 1019,7 hPa 0,0 l/m 4,1 km/h (1 Bft)
11.03.2009 09:00 17,0 C 5,3 C 46 % 86 % 1020,6 hPa 0,0 l/m 3,6 km/h (1 Bft)
11.03.2009 10:00 16,9 C 6,1 C 46 % 84 % 1021,5 hPa 0,0 l/m 1,1 km/h (1 Bft)
11.03.2009 11:00 16,9 C 6,8 C 47 % 80 % 1022,2 hPa 0,0 l/m 3,2 km/h (1 Bft)
11.03.2009 12:00 17,0 C 7,6 C 51 % 76 % 1022,5 hPa 0,0 l/m 2,6 km/h (1 Bft)
11.03.2009 13:00 17,0 C 7,8 C 51 % 75 % 1022,5 hPa 0,0 l/m 2,5 km/h (1 Bft)
11.03.2009 14:00 17,0 C 8,9 C 50 % 71 % 1022,4 hPa 0,0 l/m 2,9 km/h (1 Bft)
11.03.2009 15:00 17,1 C 9,1 C 49 % 67 % 1022,4 hPa 0,0 l/m 2,1 km/h (1 Bft)
11.03.2009 16:00 17,0 C 9,0 C 49 % 68 % 1022,4 hPa 0,0 l/m 0,4 km/h (0 Bft)
11.03.2009 17:00 17,0 C 9,1 C 47 % 63 % 1023,0 hPa 0,0 l/m 2,6 km/h (1 Bft)
11.03.2009 18:00 17,1 C 8,0 C 47 % 64 % 1023,5 hPa 0,0 l/m 0,5 km/h (0 Bft)
11.03.2009 19:00 17,2 C 6,2 C 46 % 67 % 1024,3 hPa 0,0 l/m 0,0 km/h (0 Bft)
11.03.2009 20:00 17,2 C 4,4 C 44 % 71 % 1024,5 hPa 0,0 l/m 0,0 km/h (0 Bft)
11.03.2009 21:00 17,2 C 2,9 C 44 % 75 % 1024,5 hPa 0,0 l/m 0,0 km/h (0 Bft)
11.03.2009 22:00 17,2 C 2,3 C 44 % 78 % 1024,4 hPa 0,0 l/m 0,0 km/h (0 Bft)
11.03.2009 23:00 17,2 C 2,4 C 45 % 79 % 1024,3 hPa 0,0 l/m 0,0 km/h (0 Bft)
12.03.2009 00:00 17,1 C 3,2 C 45 % 80 % 1023,5 hPa 0,0 l/m 0,0 km/h (0 Bft)
12.03.2009 01:00 17,0 C 4,3 C 44 % 79 % 1023,5 hPa 0,0 l/m 0,1 km/h (0 Bft)
12.03.2009 02:00 16,9 C 5,3 C 44 % 77 % 1023,1 hPa 0,0 l/m 0,4 km/h (0 Bft)
12.03.2009 03:00 16,8 C 5,8 C 44 % 76 % 1022,5 hPa 0,0 l/m 0,4 km/h (0 Bft)
12.03.2009 04:00 16,8 C 6,3 C 44 % 73 % 1022,0 hPa 0,0 l/m 1,9 km/h (1 Bft)
12.03.2009 05:00 16,8 C 6,6 C 44 % 71 % 1021,5 hPa 0,0 l/m 3,9 km/h (1 Bft)
12.03.2009 06:00 16,9 C 6,7 C 44 % 71 % 1020,5 hPa 0,0 l/m 1,8 km/h (1 Bft)
12.03.2009 07:00 17,0 C 6,5 C 46 % 74 % 1020,5 hPa 0,0 l/m 5,9 km/h (2 Bft)
12.03.2009 08:00 17,0 C 6,2 C 46 % 79 % 1020,5 hPa 0,0 l/m 2,2 km/h (1 Bft)
12.03.2009 09:00 17,0 C 6,0 C 47 % 84 % 1019,6 hPa 0,0 l/m 3,8 km/h (1 Bft)
12.03.2009 10:00 16,9 C 6,4 C 47 % 87 % 1019,5 hPa 0,0 l/m 6,1 km/h (2 Bft)
12.03.2009 11:00 16,9 C 6,9 C 47 % 87 % 1019,5 hPa 0,0 l/m 7,2 km/h (2 Bft)
12.03.2009 12:00 16,8 C 7,4 C 48 % 88 % 1019,3 hPa 0,0 l/m 6,8 km/h (2 Bft)
12.03.2009 13:00 16,8 C 7,9 C 48 % 88 % 1018,4 hPa 0,0 l/m 4,0 km/h (1 Bft)
12.03.2009 14:00 16,8 C 8,2 C 49 % 89 % 1018,3 hPa 0,5 l/m 4,8 km/h (1 Bft)
12.03.2009 15:00 16,9 C 8,5 C 49 % 89 % 1017,4 hPa 0,0 l/m 3,9 km/h (1 Bft)
12.03.2009 16:00 16,9 C 8,6 C 49 % 89 % 1017,4 hPa 0,5 l/m 2,5 km/h (1 Bft)
12.03.2009 17:00 16,9 C 8,8 C 50 % 89 % 1017,4 hPa 0,0 l/m 4,0 km/h (1 Bft)
12.03.2009 18:00 17,0 C 8,9 C 50 % 90 % 1017,4 hPa 0,5 l/m 1,7 km/h (1 Bft)
12.03.2009 19:00 17,2 C 8,9 C 51 % 90 % 1017,4 hPa 0,5 l/m 2,8 km/h (1 Bft)
12.03.2009 20:00 17,2 C 8,9 C 51 % 90 % 1017,4 hPa 1,0 l/m 1,1 km/h (1 Bft)
12.03.2009 21:00 17,3 C 8,8 C 51 % 90 % 1017,4 hPa 1,0 l/m 0,9 km/h (0 Bft)
12.03.2009 22:00 17,3 C 8,7 C 51 % 90 % 1017,6 hPa 0,5 l/m 1,0 km/h (0 Bft)
12.03.2009 23:00 17,3 C 8,6 C 51 % 90 % 1017,8 hPa 0,5 l/m 0,5 km/h (0 Bft)
13.03.2009 00:00 17,2 C 8,6 C 51 % 91 % 1018,4 hPa 0,0 l/m 1,3 km/h (1 Bft)
13.03.2009 01:00 17,2 C 8,5 C 51 % 90 % 1018,4 hPa 0,0 l/m 1,3 km/h (1 Bft)
13.03.2009 02:00 17,2 C 7,9 C 51 % 90 % 1018,8 hPa 0,0 l/m 0,2 km/h (0 Bft)
13.03.2009 03:00 17,2 C 7,1 C 51 % 90 % 1019,0 hPa 0,0 l/m 0,3 km/h (0 Bft)
13.03.2009 04:00 17,1 C 6,4 C 51 % 89 % 1019,3 hPa 0,0 l/m 0,1 km/h (0 Bft)
13.03.2009 05:00 17,1 C 5,8 C 51 % 89 % 1019,5 hPa 0,0 l/m 0,0 km/h (0 Bft)
13.03.2009 06:00 17,2 C 5,4 C 50 % 89 % 1020,0 hPa 0,0 l/m 0,0 km/h (0 Bft)
13.03.2009 07:00 17,2 C 5,1 C 50 % 89 % 1020,5 hPa 0,0 l/m 0,0 km/h (0 Bft)
13.03.2009 08:00 17,2 C 5,5 C 50 % 90 % 1021,5 hPa 0,0 l/m 0,1 km/h (0 Bft)
13.03.2009 09:00 17,3 C 6,6 C 50 % 89 % 1021,5 hPa 0,0 l/m 0,1 km/h (0 Bft)
13.03.2009 10:00 17,3 C 7,9 C 50 % 88 % 1021,5 hPa 0,0 l/m 0,6 km/h (0 Bft)
13.03.2009 11:00 17,4 C 9,7 C 50 % 82 % 1021,4 hPa 0,0 l/m 3,5 km/h (1 Bft)
13.03.2009 12:00 17,5 C 11,0 C 50 % 75 % 1021,4 hPa 0,0 l/m 1,1 km/h (1 Bft)
13.03.2009 13:00 17,6 C 11,8 C 49 % 70 % 1021,4 hPa 0,0 l/m 1,7 km/h (1 Bft)
13.03.2009 14:00 17,7 C 11,9 C 49 % 67 % 1021,0 hPa 0,0 l/m 0,5 km/h (0 Bft)
13.03.2009 15:00 17,7 C 11,9 C 49 % 65 % 1020,4 hPa 0,0 l/m 0,2 km/h (0 Bft)
13.03.2009 16:00 17,8 C 11,8 C 47 % 64 % 1020,4 hPa 0,0 l/m 0,0 km/h (0 Bft)
13.03.2009 17:00 17,9 C 11,6 C 47 % 63 % 1020,4 hPa 0,0 l/m 0,0 km/h (0 Bft)
13.03.2009 18:00 18,0 C 10,6 C 47 % 67 % 1020,4 hPa 0,0 l/m 0,0 km/h (0 Bft)
13.03.2009 19:00 18,0 C 9,2 C 47 % 70 % 1020,4 hPa 0,0 l/m 0,0 km/h (0 Bft)
13.03.2009 20:00 18,0 C 7,5 C 47 % 74 % 1020,3 hPa 0,0 l/m 0,0 km/h (0 Bft)
13.03.2009 21:00 18,0 C 6,3 C 47 % 76 % 1019,5 hPa 0,0 l/m 0,0 km/h (0 Bft)
13.03.2009 22:00 17,9 C 5,9 C 46 % 78 % 1019,5 hPa 0,0 l/m 0,0 km/h (0 Bft)
13.03.2009 23:00 17,8 C 5,9 C 46 % 79 % 1018,9 hPa 0,0 l/m 0,0 km/h (0 Bft)
14.03.2009 00:00 17,6 C 6,5 C 46 % 80 % 1018,5 hPa 0,0 l/m 0,0 km/h (0 Bft)
14.03.2009 01:00 17,6 C 6,9 C 46 % 80 % 1018,3 hPa 0,0 l/m 0,0 km/h (0 Bft)
14.03.2009 02:00 17,5 C 7,1 C 46 % 79 % 1017,5 hPa 0,0 l/m 0,0 km/h (0 Bft)
14.03.2009 03:00 17,4 C 7,1 C 46 % 80 % 1017,5 hPa 0,0 l/m 0,0 km/h (0 Bft)
14.03.2009 04:00 17,4 C 7,0 C 46 % 80 % 1016,5 hPa 0,0 l/m 0,0 km/h (0 Bft)
14.03.2009 05:00 17,4 C 6,9 C 47 % 81 % 1016,5 hPa 0,0 l/m 0,0 km/h (0 Bft)
14.03.2009 06:00 17,5 C 6,7 C 47 % 82 % 1016,3 hPa 0,0 l/m 0,0 km/h (0 Bft)
14.03.2009 07:00 17,6 C 6,4 C 47 % 83 % 1015,5 hPa 0,0 l/m 0,0 km/h (0 Bft)
14.03.2009 08:00 17,6 C 6,7 C 47 % 83 % 1015,5 hPa 0,0 l/m 0,0 km/h (0 Bft)
14.03.2009 09:00 17,7 C 7,7 C 47 % 83 % 1015,4 hPa 0,0 l/m 0,0 km/h (0 Bft)
14.03.2009 10:00 18,0 C 9,9 C 47 % 80 % 1014,9 hPa 0,0 l/m 0,4 km/h (0 Bft)
14.03.2009 11:00 18,1 C 12,2 C 47 % 74 % 1014,4 hPa 0,0 l/m 2,2 km/h (1 Bft)
14.03.2009 12:00 18,2 C 14,0 C 47 % 69 % 1014,1 hPa 0,0 l/m 4,1 km/h (1 Bft)
14.03.2009 13:00 18,4 C 14,8 C 48 % 66 % 1013,3 hPa 0,0 l/m 4,4 km/h (1 Bft)
14.03.2009 14:00 18,5 C 14,9 C 48 % 66 % 1013,3 hPa 0,0 l/m 7,2 km/h (2 Bft)
14.03.2009 15:00 18,6 C 14,0 C 48 % 67 % 1013,7 hPa 0,0 l/m 3,5 km/h (1 Bft)
14.03.2009 16:00 18,8 C 11,6 C 48 % 78 % 1014,4 hPa 0,0 l/m 3,7 km/h (1 Bft)
14.03.2009 17:00 18,8 C 10,4 C 48 % 83 % 1015,2 hPa 0,0 l/m 3,5 km/h (1 Bft)
14.03.2009 18:00 19,0 C 9,9 C 49 % 85 % 1016,1 hPa 0,0 l/m 0,8 km/h (0 Bft)
14.03.2009 19:00 18,9 C 9,6 C 49 % 84 % 1017,1 hPa 0,0 l/m 1,4 km/h (1 Bft)
14.03.2009 20:00 18,8 C 9,1 C 48 % 81 % 1018,2 hPa 0,0 l/m 0,6 km/h (0 Bft)
14.03.2009 21:00 18,8 C 8,9 C 48 % 81 % 1019,1 hPa 0,0 l/m 0,0 km/h (0 Bft)
14.03.2009 22:00 19,0 C 8,7 C 48 % 82 % 1019,4 hPa 0,0 l/m 0,0 km/h (0 Bft)
14.03.2009 23:00 18,9 C 8,5 C 48 % 84 % 1020,1 hPa 0,0 l/m 0,6 km/h (0 Bft)
15.03.2009 00:00 18,8 C 8,1 C 48 % 84 % 1020,5 hPa 0,5 l/m 0,6 km/h (0 Bft)
15.03.2009 01:00 18,7 C 7,9 C 48 % 84 % 1021,1 hPa 0,0 l/m 0,0 km/h (0 Bft)
15.03.2009 02:00 18,6 C 7,9 C 48 % 83 % 1021,3 hPa 0,0 l/m 0,4 km/h (0 Bft)
15.03.2009 03:00 18,5 C 7,9 C 48 % 81 % 1021,5 hPa 0,0 l/m 1,2 km/h (1 Bft)
15.03.2009 04:00 18,5 C 7,9 C 48 % 79 % 1022,2 hPa 0,0 l/m 1,1 km/h (1 Bft)
15.03.2009 05:00 18,5 C 7,7 C 48 % 78 % 1022,8 hPa 0,0 l/m 0,6 km/h (0 Bft)
15.03.2009 06:00 18,4 C 7,5 C 48 % 78 % 1023,5 hPa 0,0 l/m 1,1 km/h (1 Bft)
15.03.2009 07:00 18,4 C 7,3 C 47 % 78 % 1024,3 hPa 0,0 l/m 0,3 km/h (0 Bft)
15.03.2009 08:00 18,4 C 7,6 C 47 % 79 % 1024,6 hPa 0,0 l/m 0,8 km/h (0 Bft)
15.03.2009 09:00 18,4 C 8,2 C 47 % 78 % 1025,5 hPa 0,0 l/m 2,3 km/h (1 Bft)
15.03.2009 10:00 18,3 C 9,1 C 47 % 76 % 1025,5 hPa 0,0 l/m 4,8 km/h (1 Bft)
15.03.2009 11:00 18,3 C 9,9 C 48 % 73 % 1026,2 hPa 0,0 l/m 4,0 km/h (1 Bft)
15.03.2009 12:00 18,3 C 10,5 C 48 % 71 % 1026,4 hPa 0,0 l/m 3,3 km/h (1 Bft)
15.03.2009 13:00 18,4 C 10,8 C 48 % 68 % 1026,4 hPa 0,0 l/m 5,2 km/h (1 Bft)
15.03.2009 14:00 18,4 C 10,7 C 48 % 66 % 1026,4 hPa 0,0 l/m 4,1 km/h (1 Bft)
15.03.2009 15:00 18,3 C 10,7 C 46 % 66 % 1026,8 hPa 0,0 l/m 4,0 km/h (1 Bft)
15.03.2009 16:00 18,0 C 10,1 C 46 % 69 % 1027,5 hPa 0,0 l/m 4,1 km/h (1 Bft)
15.03.2009 17:00 18,1 C 9,8 C 46 % 72 % 1028,1 hPa 0,0 l/m 3,4 km/h (1 Bft)
15.03.2009 18:00 18,3 C 9,2 C 46 % 75 % 1029,2 hPa 0,0 l/m 1,5 km/h (1 Bft)
15.03.2009 19:00 18,4 C 8,5 C 47 % 79 % 1030,0 hPa 0,0 l/m 0,5 km/h (0 Bft)
15.03.2009 20:00 18,4 C 8,3 C 47 % 80 % 1030,5 hPa 0,0 l/m 0,6 km/h (0 Bft)
15.03.2009 21:00 18,4 C 8,0 C 47 % 81 % 1030,5 hPa 0,0 l/m 0,0 km/h (0 Bft)
15.03.2009 22:00 18,3 C 7,9 C 47 % 81 % 1030,5 hPa 0,0 l/m 0,1 km/h (0 Bft)
15.03.2009 23:00 18,2 C 7,7 C 47 % 82 % 1031,2 hPa 0,0 l/m 0,0 km/h (0 Bft)
Min-Datum _ 09.03.09 09.03.09 09.03.09 11.03.09 09.03.09 - 09.03.09
_ Min-Zeit 17:42 05:24 05:16 17:40 00:00 - 00:02
Minimum _ 16,7 C 2,1 C 43 % 61 % 1002,4 hPa - 0,0 km/h (0 Bft)
Max-Datum _ 14.03.09 14.03.09 11.03.09 12.03.09 15.03.09 10.03.09 13.03.09
_ Max-Zeit 22:30 14:14 12:24 23:32 22:50 12:02 11:34
Maximum _ 19,1 C 15,1 C 52 % 91 % 1031,5 hPa 1,0 l/m 50,6 km/h
N-NW (7 Bft)
Durchschnitt _ 17,4 C 7,2 C 47 % 79 % 1017,0 hPa #10,9 l/m 2,3 km/h (1 Bft)
© 2012 W. Hausmann